Location: Unspecified
(54.1780°N, 0.0000°E)
Time: 14:44:58
(UTC+00:00)

Altair - Pass Details

Date: 20 June 2019
Orbit: 1501 x 1683 km, 47.2° (Epoch: 24 August)

Event Time Altitude Azimuth Distance (km) Brightness Sun altitude
Rises 19:18:19 0° 201° (SSW) 4,701 10.0 8.4°
Reaches altitude 10° 19:21:57 10° 189° (S) 3,747 9.4 7.9°
Maximum altitude 19:29:21 26° 138° (SE) 2,735 8.4 7.0°
Drops below altitude 10° 19:36:57 10° 86° (E) 3,872 9.2 6.1°
Sets 19:40:45 0° 75° (ENE) 4,887 9.7 5.6°
